Dansville, NY

2:06 AM EST on November 21, 2017 (GMT -0500)
Dansville Municipal

Weather History for KDSV - March, 2012

Change the Weather History Date:

Friday, March 30, 2012

  Actual Average Record
Temperature  
Mean Temperature 42 °F -  
Max Temperature 51 °F 54 °F 82 °F (1977)
Min Temperature 32 °F 32 °F 13 °F (1970)
Degree Days  
Heating Degree Days 24    
Moisture  
Dew Point 27 °F    
Average Humidity 62    
Maximum Humidity 87    
Minimum Humidity 35    
Precipitation  
Precipitation 0.01 in - - ()
Sea Level Pressure  
Sea Level Pressure 30.03 in    
Wind  
Wind Speed 4 mph (SSE)    
Max Wind Speed 13 mph    
Max Gust Speed -    
Visibility 10 miles    
Events Rain    
Averages and records for this station are not official NWS values.
T = Trace of Precipitation, MM = Missing Value Source: NWS Daily Summary

Daily Weather History Graph

Daily Weather History Graph

Search for Another Location

Airport or City:

Trip Planner

Search our weather history database for the weather conditions in past years. The results will help you decide how hot, cold, wet, or windy it might be!

Date:

Astronomy

Mar. 30, 2012 Rise Set
Actual Time 6:55 AM EDT 7:35 PM EDT
Civil Twilight 6:27 AM EDT 8:03 PM EDT
Nautical Twilight 5:53 AM EDT 8:37 PM EDT
Astronomical Twilight 5:19 AM EDT 9:12 PM EDT
Moon 11:53 AM EDT (3/30) 2:16 AM EDT (3/30)
Length of Visible Light 13h 36m
Length of Day
12h 39m
Waxing Crescent, 49% of the Moon is Illuminated
Mar 30
Waxing Crescent
Mar 30
First Quarter
Apr 6
Full
Apr 13
Last Quarter
Apr 21
New

Hourly Weather History & Observations

Time (EDT) Temp. Windchill Dew Point Humidity Pressure Visibility Wind Dir Wind Speed Gust Speed Precip Events Conditions
12:54 AM 36.0 °F 30.3 °F 23.0 °F 59% 30.16 in 10.0 mi WNW 6.9 mph - N/A   Overcast
1:54 AM 36.0 °F 31.1 °F 25.0 °F 64% 30.15 in 10.0 mi NNW 5.8 mph - N/A   Overcast
2:54 AM 36.0 °F 29.6 °F 21.9 °F 57% 30.14 in 10.0 mi NW 8.1 mph - N/A   Overcast
3:54 AM 35.1 °F - 25.0 °F 67% 30.14 in 10.0 mi Calm Calm - N/A   Overcast
4:54 AM 34.0 °F - 23.0 °F 64% 30.15 in 10.0 mi Calm Calm - N/A   Overcast
5:54 AM 33.1 °F - 24.1 °F 70% 30.14 in 10.0 mi Calm Calm - N/A   Overcast
6:54 AM 32.0 °F - 25.0 °F 75% 30.16 in 10.0 mi Calm Calm - N/A   Overcast
7:54 AM 34.0 °F - 25.0 °F 70% 30.15 in 10.0 mi Calm Calm - N/A   Overcast
8:54 AM 37.0 °F - 21.9 °F 54% 30.16 in 10.0 mi Calm Calm - N/A   Clear
9:54 AM 39.9 °F 35.8 °F 23.0 °F 51% 30.15 in 10.0 mi North 5.8 mph - N/A   Clear
10:54 AM 41.0 °F - 21.9 °F 47% 30.15 in 10.0 mi Calm Calm - N/A   Clear
11:54 AM 43.0 °F 41.3 °F 23.0 °F 45% 30.12 in 10.0 mi WSW 3.5 mph - N/A   Clear
12:54 PM 46.0 °F 41.9 °F 25.0 °F 44% 30.08 in 10.0 mi SE 8.1 mph - N/A   Clear
1:54 PM 48.0 °F - 26.1 °F 42% 30.04 in 10.0 mi Calm Calm - N/A   Clear
2:54 PM 50.0 °F - 26.1 °F 39% 30.00 in 10.0 mi ESE 11.5 mph - N/A   Clear
3:54 PM 51.1 °F - 25.0 °F 36% 29.99 in 10.0 mi ENE 5.8 mph - N/A   Clear
4:54 PM 50.0 °F - 23.0 °F 35% 29.96 in 10.0 mi NE 10.4 mph - N/A   Clear
5:54 PM 48.0 °F - 23.0 °F 37% 29.90 in 10.0 mi ESE 12.7 mph - N/A   Mostly Cloudy
6:54 PM 46.0 °F 41.4 °F 25.0 °F 44% 29.90 in 10.0 mi SE 9.2 mph - N/A   Overcast
7:54 PM 43.0 °F - 28.0 °F 56% 29.94 in 10.0 mi Calm Calm - 0.00 in   Overcast
8:54 PM 37.9 °F 35.5 °F 33.1 °F 83% 29.96 in 10.0 mi South 3.5 mph - 0.00 in Rain Light Rain
9:12 PM 39.2 °F 35.9 °F 33.8 °F 81% 29.92 in 10.0 mi SSW 4.6 mph - 0.01 in Rain Light Rain
9:54 PM 37.9 °F 33.5 °F 33.1 °F 83% 29.94 in 10.0 mi SSW 5.8 mph - 0.01 in Rain Light Rain
10:05 PM 37.4 °F - 33.8 °F 87% 29.90 in 10.0 mi Calm Calm - 0.00 in Rain Light Rain
10:41 PM 37.4 °F 34.9 °F 33.8 °F 87% 29.88 in 10.0 mi Variable 3.5 mph - 0.00 in Rain Light Rain
10:54 PM 37.9 °F 35.5 °F 33.1 °F 83% 29.92 in 10.0 mi SW 3.5 mph - 0.00 in Rain Light Rain
11:27 PM 37.4 °F 32.1 °F 32.0 °F 81% 29.88 in 10.0 mi SSE 6.9 mph - 0.00 in Rain Light Rain
11:54 PM 37.0 °F 33.3 °F 32.0 °F 82% 29.91 in 10.0 mi Variable 4.6 mph - 0.00 in   Overcast